Content
SEND FEEDBACK

Daily
Averages
Monthly
Summary
United States of America

LIVONIA, MICHIGAN


Home > North America > United States > Michigan
Elevation: 778 feet     Latitude: 42 13N     Longitude: 083 31W

WEATHER
 
SELECT A DAY
Number of Records: 202,743;   Date Range: 1/1/95 - 8/30/14
 
SHARE

PRINT THIS DATA

[ ← Previous Day ]
WEATHER ALMANAC - APRIL 20, 2013
[ Next Day → ]
[ °C ]   °F
Weather ElementAverageHighLow
Temperature37.2 °F43 °F (3:53 pm)30.9 °F (11:53 pm)
Dewpoint22.5 °F30.2 °F (1:00 am)16 °F (8:53 am)
Humidity56.8 %78 % (1:53 am)40 % (1:53 pm)
Barometer30.05 in30.46 in (11:53 pm)29.78 in (12:53 am)
Wind Speed15 mph20.7 mph (8:53 am)
Wind Gust31.1 mph (4:25 am)
Weather ElementAverage
Visibility8.7 mi
Wind DirectionWNW (283.1 °)

Weather ElementTotal
Precipitation0.01 in
Heating Degree Days28.1 (Base 65)
Averaged from 32 records on April 20, 2013
WEATHER CONDITIONS BREAKOUT
WIND DIRECTION BREAKOUT
WEATHER BY HOUR - APRIL 20, 2013
[ °C ]   °F
Local TimeTemperatureDewpointHumidityBarometerVisibilityWind DirectionWind SpeedGust SpeedPrecipitationEventsConditions
12:53 AM39.9 °F28.9 °F65 %29.78 in10.0 miSW (230°)16.1 mph25.3 mph0.00 inRainLight Rain
1:00 AM39.2 °F30.2 °F70 %29.78 in10.0 miWSW (240°)16.1 mph0.00 inRainLight Rain
1:38 AM39.2 °F28.4 °F65 %29.79 in10.0 miWSW (250°)18.4 mph24.2 mph0.00 inOvercast
1:44 AM35.6 °F28.4 °F75 %29.80 in1.8 miWNW (290°)19.6 mph29.9 mph0.00 inSnowLight Snow
1:48 AM35.6 °F28.4 °F75 %29.80 in0.8 miWest (280°)18.4 mph29.9 mph0.00 inSnowLight Snow
1:53 AM35.1 °F28.9 °F78 %29.81 in1.0 miWest (270°)13.8 mph25.3 mph0.00 inSnowLight Snow
1:57 AM35.6 °F28.4 °F75 %29.80 in2.5 miWest (270°)13.8 mph0.00 inSnowLight Snow
2:04 AM35.6 °F28.4 °F75 %29.80 in9.0 miWSW (250°)12.7 mph0.00 inOvercast
2:53 AM36.0 °F28.0 °F73 %29.82 in10.0 miWSW (250°)16.1 mph0.00 inOvercast
3:53 AM37.0 °F28.0 °F70 %29.85 in10.0 miWest (260°)10.4 mphOvercast
4:25 AM35.6 °F24.8 °F65 %29.86 in3.0 miWest (280°)18.4 mph31.1 mph0.00 inSnowLight Snow
4:36 AM35.6 °F23.0 °F60 %29.87 in9.0 miWest (280°)19.6 mph0.00 inOvercast
4:53 AM35.1 °F23.0 °F61 %29.88 in10.0 miWest (280°)15.0 mph24.2 mph0.00 inScattered Clouds
5:53 AM34.0 °F21.9 °F61 %29.91 in10.0 miWest (280°)15.0 mphPartly Cloudy
6:53 AM33.1 °F21.0 °F61 %29.96 in10.0 miWNW (290°)15.0 mphClear
7:53 AM34.0 °F18.0 °F52 %30.01 in10.0 miWNW (290°)15.0 mph29.9 mphPartly Cloudy
8:53 AM35.1 °F16.0 °F46 %30.06 in10.0 miWNW (300°)20.7 mph25.3 mphClear
9:53 AM36.0 °F18.0 °F48 %30.09 in10.0 miNW (310°)18.4 mph28.8 mph0.01 inMostly Cloudy
10:53 AM37.0 °F19.0 °F48 %30.12 in10.0 miWest (280°)17.3 mph21.9 mphMostly Cloudy
11:53 AM39.0 °F19.0 °F45 %30.16 in10.0 miNW (310°)18.4 mph24.2 mphMostly Cloudy
12:53 PM41.0 °F19.0 °F41 %30.18 in10.0 miWNW (290°)17.3 mph24.2 mphMostly Cloudy
1:53 PM42.1 °F19.0 °F40 %30.20 in10.0 miWest (280°)18.4 mph28.8 mphOvercast
2:53 PM42.1 °F21.0 °F43 %30.23 in10.0 miWest (260°)15.0 mphOvercast
3:53 PM43.0 °F21.0 °F42 %30.25 in10.0 miWest (260°)18.4 mph23.0 mphOvercast
4:53 PM42.1 °F19.9 °F41 %30.27 in10.0 miNW (320°)17.3 mphOvercast
5:53 PM42.1 °F19.9 °F41 %30.30 in10.0 miNW (310°)13.8 mph23.0 mphOvercast
6:53 PM41.0 °F19.0 °F41 %30.32 in10.0 miNW (320°)15.0 mphOvercast
7:53 PM39.9 °F18.0 °F41 %30.34 in10.0 miNW (310°)11.5 mphOvercast
8:53 PM36.0 °F18.0 °F48 %30.38 in10.0 miNW (310°)9.2 mphScattered Clouds
9:53 PM33.1 °F18.0 °F54 %30.42 in10.0 miNW (310°)6.9 mphClear
10:53 PM34.0 °F18.0 °F52 %30.44 in10.0 miWNW (290°)5.8 mphClear
11:53 PM30.9 °F19.9 °F64 %30.46 in10.0 miNW (310°)4.6 mphClear
Hourly data recorded from KYIP, located miles away from Livonia, Michigan







STORIES FROM OUR PARTNERS